OV1-13 R/B, 3212

Orbit data source: Space-Track

OV1-13 R/B, 3212 is space debris originally from a launch on Sat, 06 Apr 1968 UTC launched from the Air Force Western Test Range (AFWTR). Debris objects in space refer to the collection of defunct objects orbiting the Earth. Examples of debris include non-operational satellites, rocket bodies, and fragments generated from explosions, collisions, or faulty payload assembly.

Loading next visibility...
Identifier
3212, 1968-026D
Orbit
Active
Country
Flag of USUS
Related business
Manufacturer
UTC
Mission
Spacecraft
Bus & Motor
FW4, Unknown motor
Mass
125 kg wet, 125 kg dry
Launch date (UTC)
1968-04-06 (58 years ago)
Launch vehicle
Unknown
Launch site
Air Force Western Test Range (AFWTR)
Object type
Payload
Rocket body
Debris
Shape & HBR
Unknown
Radar Cross Section
Large (>1 m²)

Expand to show TLE details & history
Last TLE update: 7 hours ago

TLE from 7 hours ago
0 OV1-13 R/B
1  3212U 68026D   26036.81594034  .00000312  00000-0  64815-3 0  9994
2  3212  99.9821   9.5385 3791049 324.9471  15.1696  7.28603390310786
Epoch: 2026-02-05T19:34Z
TLE epoch observation values (Epoch: 2026-02-05T19:34:57.245Z)
Latitude
-0.00012°
Longitude
-60.16275°
Altitude
971.215 km
Speed
8.546 km/s
True Right ascension
00h 38m 09s
True Declination
0° 00' 00"
Sunlit
Object was in daylight at epoch
Visualization orbit readout
Latitude
Unknown
Longitude
Unknown
Altitude
Unknown
Speed
Unknown
Apparent Right ascension
Unknown
Apparent Declination
Unknown
Sunlit
N/A
Visualization observer readout
Local Sidereal Time
04:21:26
Azimuth
Unknown
Elevation
Unknown
Doppler factor
Unknown
Orbital elements
Apogee altitude
9,119.008 km
Perigee altitude
598.926 km
Semi-major axis
11,237.104 km
Eccentricity
0.3791
Inclination
99.9821°
RAAN
9.5385°
Arg. of periapsis
324.9471°
True anomaly
35.16427°
Mean anomaly
15.1696°
Eccentric anomaly
24.00669°
Mean motion
1.82206 °/min
Orbital period
197.58 mins
BSTAR
0.00064815
Loading maneuver chart data...
Computing Atmospheric mass density...
Loading historical data...
Loading historical data...
Loading historical data...
Loading historical data...
Loading historical data...
Loading historical data...
Loading historical data...
Other satellites on launch #26 in the year 1968 (1968-04-06 UTC)

Documentation

Showing up to 5 results
|